Precipitable_Water
0.37 0.34 0.34 0.31 0.33 0.33 0.31 0.33 0.31 0.31 0.33 0.33 0.37 0.42 0.51 0.56 0.56 0.49 0.50 0.53 0.56 0.59 0.60 0.58 0.57 0.56 0.54 0.53 0.51 0.51 0.49 0.49 0.48 0.46 0.41 0.36 0.33 0.31 0.30 0.29 0.26 0.25 0.24 0.26
0.25 0.27 0.28 0.27 0.29 0.30 0.31 0.32 0.31 0.31 0.29 0.32 0.33 0.43 0.46 0.46 0.51 0.50 0.51 0.54 0.56 0.58 0.61 0.60 0.55 0.54 0.52 0.50 0.49 0.50 0.48 0.48 0.48 0.44 0.38 0.35 0.33 0.31 0.30 0.27 0.25 0.24 0.24 0.25
0.22 0.24 0.25 0.22 0.25 0.26 0.27 0.27 0.26 0.24 0.28 0.31 0.33 0.38 0.43 0.45 0.48 0.46 0.48 0.55 0.57 0.57 0.59 0.61 0.57 0.54 0.50 0.48 0.49 0.49 0.48 0.46 0.42 0.40 0.39 0.36 0.34 0.33 0.29 0.26 0.26 0.24 0.25 0.28
0.20 0.21 0.15 0.18 0.24 0.23 0.22 0.23 0.24 0.28 0.31 0.33 0.33 0.38 0.42 0.48 0.50 0.50 0.50 0.54 0.58 0.58 0.61 0.59 0.60 0.54 0.48 0.48 0.48 0.46 0.41 0.40 0.41 0.42 0.40 0.36 0.34 0.31 0.27 0.26 0.25 0.25 0.26 0.28
0.21 0.19 0.20 0.20 0.18 0.20 0.20 0.21 0.24 0.27 0.31 0.33 0.35 0.40 0.43 0.48 0.53 0.58 0.60 0.61 0.61 0.64 0.60 0.60 0.54 0.50 0.47 0.46 0.42 0.42 0.41 0.42 0.43 0.43 0.38 0.36 0.32 0.29 0.28 0.24 0.23 0.24 0.26 0.27
0.23 0.18 0.14 0.16 0.25 0.35 0.35 0.20 0.34 0.35 0.34 0.36 0.38 0.36 0.38 0.52 0.55 0.51 0.64 0.61 0.58 0.60 0.58 0.55 0.52 0.47 0.42 0.41 0.41 0.40 0.42 0.43 0.44 0.43 0.38 0.36 0.32 0.30 0.28 0.26 0.25 0.23 0.26 0.27
0.22 0.21 0.23 0.35 0.33 0.35 0.23 0.25 0.40 0.37 0.36 0.34 0.35 0.50 0.53 0.53 0.51 0.52 0.59 0.55 0.54 0.55 0.54 0.50 0.46 0.43 0.41 0.42 0.41 0.43 0.43 0.44 0.43 0.42 0.40 0.37 0.34 0.32 0.30 0.28 0.24 0.26 0.26 0.26
0.23 0.20 0.15 0.39 0.37 0.29 0.39 0.44 0.41 0.39 0.40 0.42 0.42 0.47 0.49 0.49 0.48 0.48 0.47 0.46 0.48 0.47 0.46 0.46 0.45 0.46 0.45 0.43 0.44 0.44 0.43 0.43 0.43 0.41 0.39 0.36 0.35 0.32 0.30 0.29 0.26 0.26 0.27 0.26
0.28 0.28 0.44 0.47 0.39 0.42 0.42 0.41 0.42 0.42 0.48 0.47 0.46 0.47 0.47 0.47 0.45 0.46 0.47 0.47 0.48 0.45 0.45 0.47 0.47 0.46 0.43 0.44 0.44 0.44 0.44 0.42 0.41 0.41 0.38 0.36 0.34 0.31 0.29 0.29 0.26 0.26 0.26 0.26
0.26 0.30 0.33 0.35 0.40 0.39 0.40 0.45 0.50 0.52 0.50 0.49 0.46 0.48 0.50 0.50 0.49 0.48 0.48 0.47 0.47 0.45 0.45 0.43 0.45 0.45 0.45 0.45 0.46 0.43 0.40 0.39 0.41 0.40 0.36 0.35 0.34 0.30 0.28 0.28 0.26 0.26 0.26 0.24
0.27 0.30 0.31 0.37 0.39 0.40 0.41 0.41 0.46 0.49 0.50 0.50 0.49 0.48 0.49 0.50 0.49 0.47 0.45 0.44 0.45 0.45 0.45 0.43 0.45 0.45 0.45 0.43 0.42 0.40 0.40 0.40 0.39 0.37 0.34 0.33 0.31 0.28 0.28 0.30 0.28 0.27 0.26 0.25
0.26 0.31 0.33 0.34 0.39 0.35 0.31 0.38 0.44 0.46 0.45 0.48 0.49 0.56 0.53 0.53 0.51 0.48 0.47 0.48 0.47 0.49 0.46 0.44 0.43 0.42 0.40 0.41 0.40 0.39 0.38 0.38 0.37 0.35 0.33 0.32 0.29 0.28 0.29 0.29 0.27 0.27 0.26 0.26
0.30 0.32 0.31 0.31 0.29 0.26 0.23 0.27 0.30 0.32 0.43 0.47 0.50 0.52 0.52 0.56 0.58 0.56 0.54 0.54 0.51 0.47 0.47 0.45 0.43 0.40 0.40 0.41 0.40 0.39 0.38 0.37 0.36 0.35 0.32 0.29 0.27 0.26 0.24 0.26 0.26 0.25 0.23 0.22
0.33 0.28 0.23 0.24 0.21 0.21 0.23 0.24 0.25 0.28 0.32 0.39 0.47 0.53 0.54 0.51 0.57 0.59 0.54 0.54 0.55 0.54 0.51 0.46 0.43 0.41 0.42 0.42 0.41 0.41 0.38 0.36 0.35 0.34 0.31 0.29 0.27 0.27 0.26 0.24 0.23 0.22 0.21 0.22
0.25 0.22 0.20 0.19 0.19 0.19 0.21 0.22 0.22 0.23 0.25 0.28 0.33 0.36 0.44 0.51 0.52 0.54 0.58 0.58 0.56 0.55 0.51 0.48 0.44 0.44 0.45 0.44 0.43 0.41 0.38 0.37 0.37 0.35 0.32 0.29 0.29 0.29 0.28 0.26 0.25 0.23 0.22 0.22
0.20 0.19 0.18 0.19 0.20 0.20 0.20 0.21 0.21 0.22 0.24 0.26 0.29 0.32 0.34 0.39 0.46 0.50 0.53 0.54 0.49 0.46 0.48 0.47 0.44 0.47 0.47 0.46 0.44 0.41 0.40 0.40 0.38 0.36 0.33 0.30 0.30 0.29 0.28 0.27 0.27 0.24 0.21 0.21
0.18 0.17 0.20 0.20 0.21 0.23 0.23 0.25 0.26 0.29 0.30 0.29 0.28 0.31 0.32 0.33 0.37 0.43 0.46 0.48 0.49 0.48 0.48 0.47 0.46 0.50 0.50 0.48 0.43 0.42 0.42 0.40 0.38 0.36 0.34 0.32 0.31 0.29 0.28 0.28 0.28 0.25 0.23 0.24
0.21 0.20 0.22 0.23 0.24 0.26 0.26 0.29 0.31 0.32 0.32 0.34 0.34 0.34 0.35 0.36 0.30 0.34 0.40 0.45 0.44 0.42 0.45 0.46 0.47 0.49 0.49 0.48 0.45 0.45 0.44 0.40 0.38 0.36 0.35 0.33 0.31 0.30 0.29 0.29 0.28 0.25 0.24 0.26
0.22 0.23 0.27 0.27 0.27 0.27 0.28 0.30 0.33 0.36 0.37 0.37 0.34 0.34 0.36 0.36 0.36 0.40 0.38 0.39 0.38 0.38 0.40 0.44 0.45 0.48 0.48 0.49 0.47 0.47 0.44 0.39 0.37 0.36 0.35 0.34 0.31 0.30 0.29 0.28 0.27 0.26 0.26 0.24
0.22 0.24 0.26 0.27 0.30 0.29 0.29 0.33 0.35 0.35 0.40 0.40 0.39 0.37 0.35 0.36 0.37 0.38 0.44 0.40 0.40 0.41 0.45 0.46 0.47 0.49 0.50 0.48 0.50 0.46 0.42 0.39 0.37 0.36 0.35 0.33 0.31 0.29 0.29 0.28 0.27 0.27 0.26 0.25
0.25 0.28 0.27 0.27 0.29 0.32 0.34 0.36 0.35 0.34 0.38 0.40 0.40 0.37 0.36 0.37 0.39 0.37 0.38 0.40 0.42 0.45 0.47 0.48 0.50 0.49 0.50 0.50 0.46 0.43 0.42 0.39 0.37 0.36 0.34 0.33 0.31 0.29 0.28 0.27 0.26 0.26 0.26 0.23
0.27 0.27 0.27 0.29 0.34 0.36 0.37 0.37 0.37 0.36 0.37 0.38 0.38 0.38 0.38 0.37 0.38 0.38 0.42 0.42 0.44 0.46 0.47 0.48 0.47 0.50 0.50 0.48 0.43 0.44 0.42 0.40 0.38 0.37 0.35 0.33 0.30 0.29 0.28 0.27 0.26 0.26 0.24 0.23
0.27 0.28 0.30 0.35 0.39 0.40 0.39 0.37 0.37 0.37 0.37 0.39 0.37 0.36 0.38 0.39 0.40 0.37 0.35 0.42 0.43 0.45 0.47 0.48 0.48 0.48 0.48 0.44 0.44 0.42 0.41 0.38 0.37 0.35 0.34 0.32 0.31 0.30 0.28 0.27 0.26 0.24 0.23 0.22
0.28 0.31 0.34 0.40 0.43 0.40 0.35 0.35 0.37 0.38 0.38 0.39 0.38 0.39 0.39 0.38 0.40 0.42 0.43 0.44 0.45 0.46 0.48 0.48 0.47 0.47 0.46 0.45 0.43 0.41 0.38 0.37 0.36 0.35 0.34 0.32 0.31 0.29 0.28 0.27 0.24 0.24 0.22 0.22
0.31 0.34 0.36 0.39 0.38 0.37 0.36 0.37 0.37 0.37 0.37 0.37 0.38 0.40 0.41 0.43 0.42 0.44 0.44 0.46 0.45 0.46 0.45 0.45 0.44 0.44 0.44 0.43 0.41 0.38 0.37 0.36 0.36 0.34 0.33 0.31 0.29 0.28 0.27 0.25 0.23 0.22 0.23 0.22
0.28 0.32 0.36 0.39 0.39 0.40 0.38 0.39 0.38 0.39 0.38 0.37 0.37 0.39 0.41 0.43 0.44 0.45 0.45 0.45 0.45 0.44 0.43 0.43 0.43 0.42 0.42 0.40 0.38 0.37 0.37 0.36 0.35 0.33 0.31 0.30 0.29 0.27 0.25 0.23 0.22 0.23 0.22 0.19
0.30 0.35 0.37 0.39 0.40 0.40 0.40 0.40 0.38 0.38 0.39 0.39 0.37 0.38 0.40 0.41 0.42 0.42 0.43 0.43 0.42 0.42 0.41 0.41 0.41 0.40 0.39 0.38 0.37 0.37 0.36 0.34 0.33 0.32 0.31 0.29 0.27 0.25 0.24 0.23 0.24 0.22 0.19 0.16
Wind_Speed
35 38 37 39 38 35 37 37 35 38 38 40 36 31 25 29 26 26 28 27 27 26 27 26 25 24 24 23 23 23 22 21 21 20 19 18 17 16 16 16 15 15 14 13
40 41 40 41 40 43 45 42 43 43 45 44 43 41 36 34 33 29 29 30 29 29 29 29 27 25 24 24 24 23 22 21 21 20 19 17 16 16 16 15 15 14 13 13
33 34 34 34 37 38 40 40 40 41 41 39 38 37 39 40 38 37 36 32 31 30 29 30 27 25 24 24 23 22 21 21 20 19 18 17 16 16 15 15 15 14 14 13
30 31 34 36 35 38 39 39 39 38 38 40 38 35 33 34 34 35 35 33 30 28 28 27 27 24 23 22 22 22 21 20 19 18 17 17 16 16 16 16 15 14 14 13
26 28 32 33 32 31 32 35 36 34 33 33 32 34 31 25 25 25 24 25 26 27 26 25 24 22 21 21 21 21 21 20 19 18 17 17 17 16 16 16 16 15 14 13
25 27 28 29 21 17 25 25 16 16 21 23 24 25 24 24 24 22 20 21 22 23 23 21 21 20 20 20 20 20 20 19 18 18 17 17 17 16 16 16 15 15 14 13
23 24 20 22 23 18 22 15 15 17 16 17 18 21 16 18 17 19 20 21 21 22 21 20 20 19 19 19 19 19 19 18 18 18 17 17 17 16 16 15 14 13 14 13
18 18 19 14 15 16 15 18 18 17 16 18 17 16 12 13 15 16 18 17 18 18 18 18 18 18 19 19 19 18 17 17 17 17 17 17 17 16 16 15 15 14 13 13
13 11 10 12 13 14 19 22 21 18 18 16 15 14 14 13 14 15 16 17 17 17 16 16 17 17 17 17 17 17 17 18 18 17 17 17 17 17 16 16 16 15 15 14
13 10 13 14 12 12 14 15 16 17 16 15 15 13 13 14 15 15 17 17 16 16 15 15 16 16 16 16 17 17 17 17 17 17 17 17 17 17 17 16 16 16 15 15
14 14 15 11 11 13 13 11 11 14 16 15 12 12 14 16 16 16 16 16 16 16 15 15 15 16 17 17 18 17 17 17 17 17 17 16 16 16 17 16 16 16 16 15
15 15 15 14 14 14 14 13 12 12 13 13 12 8 8 12 14 16 16 16 17 16 16 16 16 16 16 17 17 17 17 17 17 17 17 16 16 15 14 15 15 14 14 15
15 14 13 13 14 15 16 15 14 15 13 13 12 14 13 14 16 17 19 18 19 18 17 17 16 16 16 17 17 17 17 17 17 17 17 16 16 16 16 15 15 16 15 15
16 14 14 13 12 12 13 14 16 16 16 16 15 16 16 15 20 21 19 20 20 20 19 18 17 17 17 17 18 17 17 17 17 17 17 16 16 16 16 16 16 16 16 16
15 13 13 13 12 13 14 15 17 18 19 20 20 20 20 21 21 21 22 21 21 22 22 21 20 19 18 18 18 18 17 17 16 17 17 16 16 16 16 17 17 16 16 16
12 12 13 13 14 16 17 18 19 20 21 21 22 23 24 24 25 26 25 25 24 24 25 24 23 21 20 19 19 19 18 17 17 17 17 17 17 17 17 17 17 17 17 17
14 13 14 15 17 18 20 21 22 23 23 23 24 25 26 25 24 24 25 26 26 25 26 25 24 23 22 21 20 19 19 18 18 18 18 18 18 18 18 18 18 18 18 19
14 15 16 18 20 23 25 27 28 28 26 24 23 24 25 26 26 25 25 25 25 26 26 26 25 24 24 22 21 20 19 19 19 19 19 19 19 19 18 18 18 18 18 18
13 15 17 20 23 25 27 28 26 25 24 24 22 21 22 24 25 25 25 25 25 25 26 26 26 26 25 24 22 21 20 20 19 19 19 19 19 19 18 18 18 18 18 19
14 17 19 22 25 26 24 22 22 21 20 21 21 20 19 20 22 23 24 24 25 24 24 24 25 25 24 24 23 21 20 20 19 18 18 18 18 18 18 18 18 19 19 20
15 18 20 22 23 22 21 20 18 17 17 17 19 20 20 19 18 19 21 21 21 22 22 23 23 23 23 23 23 21 19 18 18 18 18 18 18 18 18 18 19 19 20 20
17 19 20 21 22 22 21 19 17 16 16 16 16 17 17 18 17 18 18 19 19 20 20 21 22 22 22 23 22 21 19 19 18 18 18 18 18 18 18 19 19 19 20 20
17 20 20 21 21 20 18 17 16 16 17 16 14 14 14 15 16 17 17 17 18 19 20 21 22 22 21 21 21 20 19 19 18 18 18 18 18 18 18 19 19 19 20 21
19 20 19 20 19 18 18 17 16 15 14 14 13 12 12 12 13 13 15 16 17 18 18 20 21 23 22 21 20 19 19 18 18 18 18 18 18 18 18 19 19 20 20 21
19 19 18 19 18 17 15 13 12 13 12 12 11 11 11 12 12 12 13 15 16 16 16 17 18 20 20 20 20 19 18 18 18 18 18 18 18 18 18 19 19 20 21 22
18 17 17 17 17 16 14 12 12 11 12 12 12 11 11 10 10 11 11 12 13 14 14 16 17 17 18 18 18 18 18 17 17 17 18 18 18 18 18 19 19 20 22 22
17 16 16 16 16 14 13 12 12 11 11 11 11 11 10 10 10 10 11 12 12 13 14 15 16 16 16 16 17 17 17 17 17 17 18 18 18 18 19 19 20 21 21 21
Wind_Direction
260 265 268 269 266 266 267 266 266 272 271 273 274 275 271 262 255 248 245 244 243 244 236 230 231 234 240 245 251 259 262 264 266 270 274 275 277 280 285 289 292 293 296 297
264 264 264 266 263 261 263 264 266 268 270 270 270 266 265 257 252 249 248 247 244 246 234 228 231 237 242 247 253 256 259 260 263 266 267 269 271 276 281 284 286 289 291 291
261 264 267 263 262 263 265 265 267 268 269 270 269 265 261 257 252 253 253 249 245 239 229 226 235 238 243 248 249 252 255 258 260 260 261 263 267 272 276 279 280 283 284 285
266 270 265 267 266 266 267 267 267 268 268 266 267 263 266 264 254 255 252 244 240 234 228 229 229 238 243 243 245 249 252 254 255 255 257 260 265 269 273 276 277 277 279 278
260 262 269 271 269 267 267 268 272 269 271 270 266 260 257 256 251 250 250 237 228 222 223 224 230 235 236 240 244 247 250 251 251 252 254 258 263 267 271 274 273 274 273 271
257 262 266 269 270 286 282 263 275 279 283 278 272 259 252 258 247 241 229 218 217 221 217 224 228 230 236 240 243 247 246 248 249 250 253 257 262 265 270 272 271 268 267 266
256 261 266 265 271 274 269 282 282 289 288 283 276 261 252 237 230 226 218 219 218 214 218 222 225 230 237 240 243 245 245 245 245 250 254 257 261 265 267 268 264 262 265 262
259 257 264 278 273 267 278 281 283 282 288 294 280 253 253 234 228 220 214 207 206 209 215 219 227 235 238 239 241 240 240 242 245 250 254 256 259 263 264 261 258 261 261 259
256 257 265 279 280 284 285 281 273 276 283 282 274 257 246 226 216 208 204 203 205 210 216 226 231 234 237 237 236 237 241 244 246 250 254 255 258 261 259 256 256 258 258 257
266 269 283 286 286 293 305 294 275 269 271 277 281 262 235 224 211 208 207 208 211 214 221 228 230 234 237 237 239 239 243 244 246 249 253 255 259 260 256 254 255 256 256 256
265 276 285 287 283 292 293 297 296 275 270 272 274 250 233 222 216 214 212 213 217 221 226 230 234 240 241 241 239 240 241 242 246 250 250 254 259 258 254 254 255 255 256 256
264 277 276 279 281 292 294 285 283 286 280 263 264 260 240 223 222 221 220 222 224 228 230 234 240 243 242 239 238 238 240 244 247 249 250 255 256 256 257 252 254 256 256 255
267 273 276 280 279 282 286 284 289 287 285 279 263 246 247 246 240 237 229 232 230 232 234 240 241 244 243 241 240 241 241 244 246 249 250 254 253 251 251 253 254 255 255 257
266 270 267 270 279 289 288 287 290 287 281 274 264 262 247 244 241 230 230 236 240 240 238 239 245 247 244 244 243 242 242 244 247 250 251 253 252 250 250 249 252 254 255 258
259 256 261 271 279 286 290 294 293 289 285 275 269 263 255 248 243 240 240 242 238 237 240 244 247 248 245 244 242 240 242 245 248 250 251 251 251 250 251 251 252 253 255 258
251 256 262 269 279 287 292 294 295 294 290 283 273 266 260 256 250 248 247 243 242 244 245 246 247 245 242 241 242 241 244 246 248 250 250 250 251 251 252 252 252 253 257 260
250 257 267 274 284 289 291 293 292 292 290 284 275 268 261 257 254 252 248 247 246 248 246 244 244 241 238 240 242 242 244 245 247 250 251 251 252 251 252 252 253 256 262 265
252 267 280 285 289 291 292 292 289 284 281 279 279 271 262 255 252 251 249 247 246 247 245 242 241 238 238 239 240 241 245 244 248 252 252 251 251 250 251 253 256 260 265 269
263 278 286 293 295 296 295 292 289 283 277 274 273 269 264 255 250 248 245 245 244 245 245 241 238 236 236 236 237 241 242 247 249 252 251 250 249 249 251 255 259 263 267 274
275 285 294 298 300 298 295 291 288 282 276 273 265 267 265 260 252 246 243 244 245 245 241 237 233 232 231 231 235 238 243 246 248 249 249 248 248 250 254 257 261 265 270 277
282 292 298 302 301 297 293 290 285 279 277 283 265 264 263 259 253 246 240 244 242 240 235 231 228 229 230 230 230 236 242 243 245 247 247 247 249 252 256 260 264 269 273 278
289 297 301 302 302 297 293 286 279 276 279 280 279 269 261 255 253 246 243 244 237 233 231 229 228 227 228 226 230 234 239 243 246 246 247 249 251 255 258 262 267 271 275 279
292 299 302 306 305 300 296 287 278 276 278 278 280 271 262 256 249 243 239 239 236 233 233 229 229 226 226 226 229 232 240 242 244 245 249 252 255 257 261 265 268 272 276 280
292 297 299 308 308 302 296 287 277 275 273 272 273 269 263 255 252 248 239 237 233 232 233 232 232 227 225 225 227 235 239 242 243 248 251 254 257 260 264 267 270 275 279 282
290 293 296 303 306 306 302 294 285 273 267 267 266 264 265 260 253 246 242 238 232 231 230 224 215 212 220 226 233 237 239 242 246 249 252 256 260 263 266 269 273 276 281 285
290 287 293 299 303 301 301 290 284 279 271 266 266 266 262 254 247 243 238 227 224 221 221 216 217 223 227 230 231 232 238 242 246 251 254 258 262 264 268 272 275 279 284 286
283 284 291 297 300 297 295 291 284 279 274 271 265 258 253 249 245 239 233 230 225 223 220 223 226 226 227 227 231 236 241 246 250 254 257 261 263 267 271 274 278 283 284 284